Find Comstar 202

NORAD ID: 9047 Int'l Des: 1976-073 Owner: COM Country: US operational
HEOCIRCULAR

現在のビュー

3D地球を読み込み中...

About Comstar 202

Comstar 202 (NORAD 9047) is a satellite by COM of US. It operates in HEO, CIRCULAR orbit

次回通過

Passes for default location (London). Set your location on the main map for personalized predictions.

高度履歴

Loading altitude history...

軌道要素

1 9047U 76073A 26195.18796477 -.00000280 00000-0 00000+0 0 9995
2 9047 7.8643 304.9699 0000640 191.7676 167.3259 0.99979557 47472
Epoch: Jul 14, 2026 • Age: 9 hours

現在のステータス

高度 35866.2 km
遠地点 / 近地点 N/A
速度 3.07 km/s
衛星直下点 5.31°N, 55.8°W
タイプ other

Most Searched